#timestamp,LO_Frequency,Hit,StdDev 
1639854015.7,286047001.1,N
1639854035.5,286047001.0,N
1639854055.4,286047000.5,N
1639854075.2,286047000.1,N
1639854095.0,286047002.0,Y
1639854095.9,286047002.0,P
1639854115.8,286047002.0,N
1639854135.6,286047001.5,N
1639854155.5,286047004.4,Y
1639854175.3,286047002.1,P
1639854195.1,286047000.6,N
1639854215.9,286047000.4,N
1639854235.7,286047002.8,Y
1639854255.6,286047002.7,P
1639854275.4,286047000.2,N
1639854295.2,286047000.4,N
1639854315.1,286047001.4,N
1639854316.0,286047001.4,N
1639854335.8,286047002.8,Y
1639854355.6,286046998.9,P
1639854375.5,286046999.2,N
1639854395.3,286046998.9,N
1639854415.2,286046999.6,N
1639854435.9,286046999.0,N
1639854455.7,286046998.8,N
1639854475.6,286047000.7,N
1639854495.4,286047001.0,N
1639854515.2,286047001.2,N
1639854535.1,286046998.5,N
1639854536.0,286046998.5,N
1639854555.8,286046998.2,N
1639854575.7,286046999.0,N
1639854595.5,286046998.2,N
1639854615.3,286046998.2,N
1639854635.2,286046999.4,N
1639854655.0,286046997.0,N
1639854655.9,286046997.0,N
1639854675.8,286046997.3,N
1639854695.6,286046997.7,N
1639854715.4,286046997.0,N
1639854735.3,286046999.5,N
1639854755.1,286046997.2,N
1639854775.8,286046997.4,N
1639854795.7,286046997.7,N
1639854815.5,286046999.6,N
1639854835.4,286046996.5,N
1639854855.2,286046998.8,N
1639854875.0,286046996.7,N
1639854875.9,286046996.7,N
1639854895.8,286046998.7,N
1639854915.6,286046998.8,N
1639854935.5,286047000.7,N
1639854955.3,286047001.1,N
1639854975.1,286047001.0,N
1639854995.9,286046999.7,N
1639855015.7,286046998.1,N
1639855035.5,286046998.2,N
1639855055.4,286046998.2,N
1639855075.2,286046995.0,Y
1639855095.1,286046998.8,P
1639855096.0,286046998.8,P
1639855115.8,286046999.0,P
1639855135.6,286046998.6,Y
1639855155.5,286047000.1,P
1639855175.7,286047001.5,N
1639855195.5,286047002.0,N
1639855215.4,286047002.4,N
1639855235.2,286046999.8,N
1639855255.0,286047000.4,N
1639855255.9,286047000.4,N
1639855275.8,286047000.1,N
1639855295.6,286047001.8,N
1639855315.5,286047001.5,N
1639855335.3,286047003.9,Y
1639855355.1,286047001.0,P
1639855375.9,286046998.6,P
1639855395.7,286047000.6,N
1639855415.6,286047000.1,N
1639855435.4,286047002.7,Y
1639855455.2,286046999.8,P
1639855475.1,286047001.9,P
1639855476.0,286047001.9,N
1639855495.8,286046999.8,N
1639855515.7,286047002.8,N
1639855535.5,286047002.3,N
1639855555.3,286047002.0,N
1639855575.2,286047000.3,N
1639855595.0,286047000.3,N
1639855595.9,286047000.3,N
1639855615.8,286046998.5,N
1639855635.6,286046998.2,N
1639855655.4,286047000.0,N
1639855675.3,286047000.7,N
1639855695.1,286047000.0,N
1639855715.8,286047000.5,N
1639855735.7,286047000.0,N
1639855755.5,286046999.9,N
1639855775.4,286046999.7,N
1639855795.2,286047002.3,N
1639855815.0,286047002.1,N
1639855815.9,286047002.1,N
1639855835.8,286047001.7,N
1639855855.6,286047004.3,Y
1639855875.5,286047002.8,P
1639855895.3,286047001.9,N
1639855915.1,286047002.3,N
1639855935.9,286047001.7,N
1639855955.7,286047001.3,N
1639855975.6,286047001.3,N
1639855995.4,286047001.4,N
1639856015.2,286047004.0,Y
1639856035.1,286047001.7,P
1639856036.0,286047001.7,P
1639856055.8,286047000.8,P
1639856075.7,286047000.5,N
1639856095.5,286047001.2,N
1639856115.3,286047001.0,N
1639856135.2,286046997.3,Y
1639856155.0,286046996.2,P
1639856155.9,286046996.2,N
1639856175.8,286046995.7,N
1639856195.6,286046995.6,N
1639856215.4,286046995.8,N
1639856235.3,286046994.2,N
1639856255.1,286046995.5,N
1639856275.8,286046995.3,N
1639856295.7,286046995.4,N
1639856315.5,286046997.7,N
1639856335.4,286046996.5,N
1639856355.2,286047011.9,Y
1639856375.0,286047002.1,P
1639856375.9,286047002.1,N
1639856395.8,286047000.6,N
1639856415.6,286047000.4,N
1639856435.5,286047002.4,N
1639856455.3,286047000.2,N
1639856475.1,286046998.6,N
1639856495.9,286046998.5,N
1639856515.7,286047001.0,N
1639856535.5,286047000.5,N
1639856555.4,286047002.4,N
1639856575.2,286047002.6,N
1639856595.1,286047002.7,N
1639856596.0,286047002.7,N
1639856615.8,286047002.2,N
1639856635.6,286047001.4,N
1639856655.5,286047001.4,N
1639856675.3,286047004.4,N
1639856695.2,286047001.9,N
1639856715.9,286047002.5,N
1639856735.7,286047001.0,N
1639856755.6,286047001.2,N
1639856775.4,286047001.1,N
1639856795.3,286047000.9,N
1639856815.1,286047002.3,N
1639856816.0,286047002.3,N
1639856835.8,286046999.7,N
1639856855.7,286047001.0,N
1639856875.5,286046999.2,N
1639856895.3,286046998.4,N
1639856915.2,286047000.5,N
1639856935.0,286047000.2,N
1639856935.9,286047000.2,N
1639856955.8,286046999.9,N
1639856975.6,286046999.8,N
1639856995.4,286047001.9,N
1639857015.3,286047002.1,N
1639857035.1,286047001.8,N
1639857055.9,286047001.5,N
1639857075.7,286047002.7,N
1639857095.5,286047001.5,N
1639857115.4,286047001.5,N
1639857135.2,286047001.8,N
1639857155.0,286047004.0,Y
1639857155.9,286047004.0,P
1639857175.8,286047002.5,N
1639857195.6,286047004.1,P
1639857215.5,286047001.5,N
1639857235.3,286047001.7,N
1639857255.1,286047001.8,N
1639857275.9,286047002.6,N
1639857295.7,286047002.8,N
1639857315.5,286046999.8,N
1639857335.4,286047004.2,Y
1639857355.2,286047000.4,P
1639857375.1,286047000.3,N
1639857376.0,286047000.3,N
1639857395.8,286047001.0,N
1639857415.6,286046998.5,N
1639857435.5,286047001.2,N
1639857455.3,286046998.7,N
1639857475.1,286046997.0,N
1639857495.9,286046997.9,N
1639857515.7,286046997.2,N
1639857535.6,286046999.1,N
1639857555.4,286046999.1,N
1639857575.2,286046998.5,N
1639857595.1,286046998.5,N
1639857596.0,286046998.5,N
